Regional Weather Roundup
Issued by NWS

Home | Current Version | Previous Version | Graphics & Text | Print | Product List | Glossary On
Versions: 1 2 3 4 5 6 7 8 9 10 11 12 13 14 15 16 17 18 19 20 21 22 23 24 25 26 27 28 29 30 31 32 33 34 35 36 37 38 39 40 41 42 43 44 45 46 47 48 49 50
000
ASUS43 KLMK 300510
RWRKY
KENTUCKY REGIONAL WEATHER ROUNDUP
NATIONAL WEATHER SERVICE LOUISVILLE KY
100 AM EDT SUN AUG 30 2015

NOTE "FAIR" INDICATES FEW OR NO CLOUDS BELOW 12,000 FEET
WITH NO SIGNIFICANT WEATHER AND/OR OBSTRUCTIONS TO VISIBILITY.

KYZ001>023-026-027-061>063-070>075-300600-
WESTERN AND SOUTH CENTRAL KENTUCKY

CITY           SKY/WX    TMP DP  RH WIND       PRES   REMARKS
PADUCAH        CLOUDY    74  70  87 CALM      30.04S
HENDERSON      CLOUDY    72  68  88 CALM      30.03F
OWENSBORO      CLOUDY    73  69  87 S6        30.06S
HOPKINSVILLE   MOCLDY    74  69  84 S6        30.07S
BOWLING GREEN  PTCLDY    73  67  81 S6        30.09S
GLASGOW        PTCLDY    70  67  92 CALM      30.11S
$$

KYZ024-025-028>034-038-045-046-053-300600-
NORTH CENTRAL KENTUCKY

CITY           SKY/WX    TMP DP  RH WIND       PRES   REMARKS
LOUISVILLE/SDF MOCLDY    76  68  76 S7        30.07S
LOUISVILLE/LOU PTCLDY    74  67  78 CALM      30.08S
FORT KNOX      PTCLDY    71  68  88 S6        30.07S
$$

KYZ035>037-039>044-047>052-055>060-089>105-300600-
NORTHEAST KENTUCKY

CITY           SKY/WX    TMP DP  RH WIND       PRES   REMARKS
LEXINGTON      CLEAR     71  67  87 S5        30.11S
COVINGTON      MOCLDY    72  67  84 SW5       30.09R
FRANKFORT      PTCLDY    71  65  81 SW5       30.08F
$$

KYZ054-064>069-076>088-106>120-300600-
SOUTHEAST KENTUCKY

CITY           SKY/WX    TMP DP  RH WIND       PRES   REMARKS
JACKSON        CLEAR     70  63  78 S3        30.14S
LONDON         PTCLDY    70  64  81 CALM      30.14S
SOMERSET       CLEAR     70  70 100 CALM      30.14R
MIDDLESBORO    CLEAR     65  64  97 CALM      30.16S
MONTICELLO     CLEAR     66  66 100 CALM      30.16R FOG
$$



USA.gov is the U.S. government's official web portal to all federal, state and local government web resources and services.